Regional Weather Roundup
Issued by NWS Albany, NY

Home | Current Version | Previous Version | Text Only | Print | Product List | Glossary On
Versions: 1 2 3 4 5 6 7 8 9 10 11 12 13 14 15 16 17 18 19 20 21 22 23 24 25 26 27 28 29 30 31 32 33 34 35 36 37 38 39 40 41 42 43 44 45 46 47 48 49 50
268
ASUS41 KALY 240310
RWRALY

NEW YORK STATE HOURLY WEATHER ROUNDUP
NATIONAL WEATHER SERVICE ALBANY NY
1100 PM EDT SUN JUL 23 2017

NOTE: "FAIR" INDICATES FEW OR NO CLOUDS BELOW 12,000 FEET WITH NO
SIGNIFICANT WEATHER AND/OR NO OBSTRUCTIONS TO VISIBILITY.

NYZ032-033-038>043-046>054-057>066-NYZ062>081-082-084-240400-
EAST


CITY           SKY/WX    TMP DP  RH WIND       PRES   REMARKS
ALBANY         CLOUDY    74  61  63 SE3       29.86R
GLENS FALLS    CLOUDY    67  55  65 E6        29.87S
POUGHKEEPSIE   MOCLDY    71  62  73 SE6       29.84F
NEWBURGH       CLOUDY    72  66  83 SE9       29.87F
MONTGOMERY     CLOUDY    72  65  78 E5        29.86S
ISLIP          CLOUDY    71  65  81 E9        29.87S
NEW YORK CITY  CLOUDY    75  68  78 SE13      29.84F
CENTRAL PARK   CLOUDY    73  67  81 SE7       29.88F
$$

NYZ005>009-017-018-044>046-055-056-240400-
CENTRAL


CITY           SKY/WX    TMP DP  RH WIND       PRES   REMARKS
FULTON         CLOUDY    72  64  76 VRB6      29.76F
SYRACUSE       MOCLDY    70  65  84 NE8       29.76F
ROME           CLOUDY    71  64  78 E7        29.81S
ELMIRA         RAIN      69  66  90 NE3       29.78S
BINGHAMTON     RAIN      64  64 100 SE12      29.81F
$$

NYZ026>034-041>043-087-240400-
NORTH


CITY           SKY/WX    TMP DP  RH WIND       PRES   REMARKS
WATERTOWN      CLOUDY    67  58  72 NE12      29.79F
FORT DRUM      NOT AVBL
OGDENSBURG     MOCLDY    67  54  61 E7        29.85F
MASSENA        CLOUDY    65  51  60 E6        29.89R
SARANAC LAKE   CLOUDY    61  49  64 NE9       29.91S
PLATTSBURGH    CLOUDY    66  50  56 NW6       29.90R
$$

NYZ001>004-010>016-019>021-085-240400-
WEST


CITY           SKY/WX    TMP DP  RH WIND       PRES   REMARKS
NIAGARA FALLS  CLOUDY    71  65  81 E8        29.74F
BUFFALO        CLOUDY    70  68  93 NE6       29.75F
DUNKIRK        MOCLDY    71  68  90 SW3       29.75F
JAMESTOWN      MOCLDY    70  63  78 NW5       29.79F
WELLSVILLE     CLOUDY    69  65  86 MISG      29.82F
ROCHESTER      CLOUDY    72  67  84 NE7       29.75F
PENN YAN       CLOUDY    67  64  90 CALM      29.79R
$$

             KEY
       WCI = WIND CHILL INDEX
       VSB = VISIBILITY
       HX  = HEAT INDEX
$$




USA.gov is the U.S. government's official web portal to all federal, state and local government web resources and services.